Location: Baumgarten
(49.0970°N, 12.7493°E)
Time: 18:08:38
(UTC+00:00)

Genesis I - Pass Details

Date: 05 July 2020
Orbit: 509 x 513 km, 64.5° (Epoch: 13 August)

Event Time Altitude Azimuth Distance (km) Brightness Sun altitude
Exits shadow 22:18:47 32° 208° (SSW) 899 4.0 -17.2°
Maximum altitude 22:20:29 77° 127° (SE) 530 3.0 -17.3°
Drops below altitude 10° 22:24:22 10° 42° (NE) 1,738 6.3 -17.4°
Sets 22:26:32 0° 41° (NE) 2,628 7.3 -17.5°
